Погода в Бойсе

США     43°37′09″N   116°12′52″W
темп.,
°C
ветер,
м/с
пор.,
м/с
влажн.,
%
обл.,
%
осадки,
мм/ч
давл.,
гПа
погр.,
м
31 июля, сб
сб3100:00+28в563578 0.0 1013214
03:00+25юв61151100 0.2 1014304
06:00+25вюв225188 0.2 101553
09:00+25в1154100 0.5 101688
12:00+27юв234672 0.6 1016436
15:00+29с123713 0.0 10141127
18:00+33зюз5329100 0.0 10122429
21:00+24сз126184 0.6 101490
1 августа, вс
вс100:00+23ссв3572100 3.6 1016309
03:00+22юв357544 0.5 1017245
06:00+21юв2481100 0.9 1017155
09:00+23ююв3468100 1.0 1018525
12:00+28ю3448100 1.0 10171347
15:00+31з333699 0.0 10152088
18:00+33сз44305 0.0 10122375
21:00+30сз35355 0.0 1012339
2 августа, пн
пн200:00+27с224378 0.0 101460
03:00+25всв115098 0.0 101534
06:00+23ююв2360100 0.4 101668
09:00+24ю2256100 0.0 1017265
12:00+27з2347100 0.0 1017682
15:00+32сз552971 0.0 10151564
18:00+34сз5617100 0.0 10122053
21:00+29ссз35286 0.0 1013211
3 августа, вт
вт300:00+27с113314 0.0 101311
03:00+24всв22372 0.0 101421
06:00+23вюв44400 0.0 101565
09:00+26ююв56470 0.0 1016422
12:00+32ю43300 0.0 10151169
15:00+35зюз12190 0.0 10122327
18:00+37сз23130 0.0 10102998
21:00+32в22166 0.0 100937
4 августа, ср
ср400:00+29в34200 0.0 101045
03:00+27всв33210 0.0 101134
06:00+25всв11250 0.0 101219
09:00+29юв12190 0.0 1013249
12:00+36ююв45130 0.0 10111109
15:00+40ю4590 0.0 10084449
18:00+40ю67975 0.0 10043925
21:00+34ссз231497 0.1 100452